Notices

What's New in latest Release from April 7th, 2021:

- Updated Glossary, including Speed of Maximum Gust, and Total Hourly Precipitation

- Updated national and regional climate services offices contacts and prices information

- Addition of station inventory lists for 1981-2010, 1971-2000, and 1961-1990 Normals.

If you haven't already, please take our survey and provide feedback about our website: https://eccc.sondage-survey.ca/f/LanguageSelection.aspx?s=442ca660-fcf1-47c0-95a9-59707d6fd709

Hourly Data Report for August 14, 2019

TORONTO CITY
ONTARIO
Current Station Operator: ECCC - MSC

43°40'00.000" N
79°24'00.000" W
112.50 m
6158355
71508
XTO

Download Data

Hourly Data (August 2019)
Hourly Data Report for August 14, 2019
TIME
LST
Temp Definition
°C
Dew Point Definition
°C
Rel Hum Definition
%
Precip. Amount Definition
mm

Wind Dir Definition
10's deg

Wind Spd Definition
km/h
Visibility Definition
km
Stn Press Definition
kPa
Hmdx Definition


Wind Chill Definition


Weather Definition


00:00 21.7 9.4 46 0.0       99.74     LegendNANA
01:00 21.0 9.2 47 0.0       99.77     LegendNANA
02:00 20.9 9.4 48 0.0       99.79     LegendNANA
03:00 19.9 9.4 51 0.0       99.81     LegendNANA
04:00 18.9 9.8 56 0.0       99.84     LegendNANA
05:00 18.6 10.0 57 0.0       99.89     LegendNANA
06:00 18.4 10.1 58 0.0       99.96     LegendNANA
07:00 19.0 9.4 54 0.0       100.02     LegendNANA
08:00 20.3 9.4 49 0.0       100.07     LegendNANA
09:00 21.0 9.3 47 0.0       100.10     LegendNANA
10:00 23.1 7.9 38 0.0       100.11     LegendNANA
11:00 24.0 7.7 35 0.0       100.10     LegendNANA
12:00 25.3 9.0 36 0.0       100.08 26   LegendNANA
13:00 24.4 8.3 36 0.0       100.05 25   LegendNANA
14:00 24.1 9.2 39 0.0       100.07 25   LegendNANA
15:00 24.6 10.4 41 0.0       100.07 26   LegendNANA
16:00 23.2 9.7 42 0.0       100.06     LegendNANA
17:00 22.9 11.8 50 0.0       100.08 25   LegendNANA
18:00 22.7 11.6 49 0.0       100.07 25   LegendNANA
19:00 21.8 12.2 54 0.0       100.11     LegendNANA
20:00 21.2 6.6 39 0.0       100.14     LegendNANA
21:00 20.7 6.8 40 0.0       100.20     LegendNANA
22:00 20.4 7.7 44 0.0       100.24     LegendNANA
23:00 19.9 7.6 45 0.0       100.29     LegendNANA

Notes on Data Quality.

Legend

  • E = Estimated
  • M = Missing
  • NA = Not Available*
  • [empty] = Indicates an unobserved value
Date modified: